Regional Weather Roundup
Issued by NWS

Home | Current Version | Previous Version | Graphics & Text | Print | Product List | Glossary Off
Versions: 1 2 3 4 5 6 7 8 9 10 11 12 13 14 15 16 17 18 19 20 21 22 23 24 25 26 27 28 29 30 31 32 33 34 35 36 37 38 39 40 41 42 43 44 45 46 47 48 49 50

000
ASUS43 KTOP 231559
RWRKS

WEATHER ROUNDUP FOR KANSAS
NATIONAL WEATHER SERVICE GOODLAND KS
1100 AM CDT SAT JUL 23 2016

NOTE:  "FAIR" INDICATES FEW OR NO CLOUDS BELOW 12,000 FEET WITH NO
SIGNIFICANT WEATHER AND/OR OBSTRUCTIONS TO VISIBILITY.

KSZ001>006-013>018-027>032-041>047-231700-
NORTHWEST KANSAS

CITY           SKY/WX    TMP DP  RH WIND       PRES   REMARKS
GOODLAND       SUNNY     85  59  41 SW6       29.96R
HAYS           MOSUNNY   90  63  40 S15G22    29.88F
HILL CITY      MOSUNNY   87  65  47 S17G23    29.88S
RUSSELL        MOSUNNY   86  65  49 S18       29.87F
$$

KSZ061>065-074>080-084>089-231700-
SOUTHWEST KANSAS

CITY           SKY/WX    TMP DP  RH WIND       PRES   REMARKS
DODGE CITY     MOSUNNY   87  62  43 S17       29.94F
ELKHART          N/A     92  55  28 S15         N/A
GARDEN CITY    PTSUNNY   89  64  43 SW16G22   29.92F
GREAT BEND     SUNNY     91  64  40 S20       29.89F
LIBERAL        SUNNY     93  59  31 SW16      29.97F
$$

KSZ066>073-081>083-090>101-231700-
SOUTHEAST KANSAS

CITY           SKY/WX    TMP DP  RH WIND       PRES   REMARKS
CHANUTE        SUNNY     90  73  57 S9        29.97F HX  98
COFFEYVILLE    SUNNY     92  72  51 S9        29.97F HX  99
HUTCHINSON     PTSUNNY   90  66  45 S15       29.93F
NEWTON         MOSUNNY   91  68  46 SW15G21   29.95F HX  95
PARSONS        SUNNY     90  72  55 S8        29.99F HX  97
WICHITA INTL   PTSUNNY   93  67  42 S16       29.93F HX  96
WICHITA JABRA  MOSUNNY   89  69  51 S12       29.94F
WINFIELD       SUNNY     94  68  42 SW12      29.96F HX  98
$$

KSZ007>012-019>026-033>040-048>060-102>105-231700-
NORTHEAST KANSAS

CITY           SKY/WX    TMP DP  RH WIND       PRES   REMARKS
CONCORDIA      CLOUDY    83  68  60 S12       29.86F
EMPORIA        PTSUNNY   90  71  53 S10       29.95F HX  96
LAWRENCE       CLOUDY    87  74  64 S8        29.93F HX  95
MANHATTAN      PTSUNNY   89  69  51 S14       29.89F
OLATHE IND     PTSUNNY   87  73  62 S10       29.97F
OLATHE EXE     CLOUDY    84  73  69 S8        29.97F
SALINA         PTSUNNY   93  67  42 S20G25    29.88F HX  96
TOPEKA BILLARD CLOUDY    88  72  58 S8        29.92F
TOPEKA FORBES  MOSUNNY   89  73  59 S10       29.93F HX  97
$$



USA.gov is the U.S. government's official web portal to all federal, state and local government web resources and services.